Location: Caltech
(34.1382°N, 118.1253°W)
Time: 04:50:04
(UTC-07:00)

Oscar 10/S400 - Visible Passes

Search period start: 01 August 2015 00:00
Search period end: 11 August 2015 00:00
Orbit: 3868 x 35579 km, 25.9° (Epoch: 31 July)

Date Brightness Start Highest point End Pass type
(mag) Time Alt. Az. Time Alt. Az. Time Alt. Az.
01 Aug ? 05:38:53 10° SW 15:57:29 59° SSE 16:25:31 10° E visible
02 Aug ? 04:51:26 13° SW 05:44:49 19° S 15:41:00 10° E visible
03 Aug ? 04:11:07 19° SSW 04:30:31 20° S 14:56:08 10° E visible
04 Aug ? 03:30:48 23° SSW 03:34:18 23° SSW 14:10:49 10° E visible
05 Aug ? 02:23:16 10° WSW 02:50:29 25° S 13:24:44 10° E visible
06 Aug ? 01:37:24 10° W 02:10:09 24° S 12:37:28 10° E visible
07 Aug ? 00:51:54 10° W 01:29:54 20° SSE 11:48:12 10° E visible
07 Aug ? 00:51:54 10° W 01:29:48 20° SSE 01:51:48 10° SE visible
08 Aug ? 00:06:32 10° W 00:49:28 15° SE 00:57:56 10° SE visible
08 Aug ? 00:06:32 10° W 00:49:37 15° SE 00:57:56 10° SE visible
08 Aug ? 23:21:03 10° W 23:38:10 44° SSW 23:40:09 43° S visible
09 Aug ? 22:35:17 10° W 22:53:33 49° SSW 22:59:13 41° SSE visible
10 Aug ? 21:48:56 10° W 22:09:09 55° SSW 22:18:18 35° SE visible
